Weather History for KOWB - January, 2013

Change the Weather History Date:

Monday, January 28, 2013

  Actual Average Record
Temperature  
Mean Temperature 51 °F -  
Max Temperature 59 °F 43 °F - (-1)
Min Temperature 43 °F 24 °F - (-1)
Degree Days  
Heating Degree Days 14    
Growing Degree Days 1 (Base 50)    
Moisture  
Dew Point 50 °F    
Average Humidity 90    
Maximum Humidity 100    
Minimum Humidity 77    
Precipitation  
Precipitation 0.09 in - - ()
Sea Level Pressure  
Sea Level Pressure 30.10 in    
Wind  
Wind Speed 11 mph (South)    
Max Wind Speed 16 mph    
Max Gust Speed 21 mph    
Visibility 8 miles    
Events Rain    
Averages and records for this station are not official NWS values.
T = Trace of Precipitation, MM = Missing Value Source: NWS Daily Summary

Daily Weather History Graph

Daily Weather History Graph

Search for Another Location

Airport or City:

Trip Planner

Search our weather history database for the weather conditions in past years. The results will help you decide how hot, cold, wet, or windy it might be!

Date:

Astronomy

Jan. 28, 2013 Rise Set
Actual Time 6:55 AM CST 5:08 PM CST
Civil Twilight 6:27 AM CST 5:36 PM CST
Nautical Twilight 5:56 AM CST 6:07 PM CST
Astronomical Twilight 5:25 AM CST 6:38 PM CST
Moon 6:59 PM CST (1/28) 7:23 AM CST (1/28)
Length of Visible Light 11h 08m
Length of Day
10h 12m
Full, 98% of the Moon is Illuminated
Jan 28
Full
Feb 3
Last Quarter
Feb 10
New
Feb 17
First Quarter
Feb 25
Full

Hourly Weather History & Observations

Time (CST) Temp. Windchill Dew Point Humidity Pressure Visibility Wind Dir Wind Speed Gust Speed Precip Events Conditions
12:56 AM 43.9 °F 39.3 °F 41.0 °F 90% 30.14 in 10.0 mi South 8.1 mph - N/A   Scattered Clouds
1:56 AM 45.9 °F 40.8 °F 41.0 °F 83% 30.14 in 10.0 mi South 10.4 mph - N/A   Overcast
2:56 AM 45.9 °F 40.8 °F 39.9 °F 80% 30.14 in 10.0 mi South 10.4 mph - N/A   Mostly Cloudy
4:56 AM 47.8 °F - 41.0 °F 77% 30.12 in 10.0 mi South 15.0 mph - N/A   Scattered Clouds
5:56 AM 50.0 °F - 43.0 °F 77% 30.11 in 8.0 mi South 15.0 mph - N/A   Mostly Cloudy
6:56 AM 50.0 °F - 43.9 °F 79% 30.12 in 10.0 mi South 13.8 mph - N/A   Mostly Cloudy
7:33 AM 48.2 °F - 46.4 °F 93% 30.12 in 4.0 mi South 13.8 mph 20.7 mph 0.01 in Rain Light Rain
7:56 AM 48.9 °F - 46.9 °F 93% 30.13 in 2.0 mi SSW 10.4 mph 18.4 mph 0.04 in Rain Light Rain
8:56 AM 50.0 °F - 48.9 °F 96% 30.13 in 5.0 mi SSW 13.8 mph - 0.05 in Rain Light Rain
9:56 AM 50.9 °F - 50.0 °F 97% 30.14 in 6.0 mi South 15.0 mph - 0.00 in   Overcast
10:28 AM 51.8 °F - 51.8 °F 100% 30.13 in 8.0 mi South 16.1 mph - N/A   Overcast
10:56 AM 52.9 °F - 50.9 °F 93% 30.13 in 8.0 mi SSW 16.1 mph - N/A   Overcast
11:56 AM 54.0 °F - 52.0 °F 93% 30.10 in 8.0 mi SSW 15.0 mph - N/A   Overcast
12:56 PM 55.9 °F - 54.0 °F 93% 30.07 in 6.0 mi SSW 13.8 mph - N/A   Overcast
1:56 PM 56.8 °F - 54.9 °F 93% 30.06 in 7.0 mi SSW 12.7 mph - N/A   Overcast
2:56 PM 57.9 °F - 54.9 °F 90% 30.06 in 9.0 mi SSW 11.5 mph - N/A   Overcast
3:56 PM 57.9 °F - 55.9 °F 93% 30.06 in 7.0 mi South 6.9 mph - N/A   Overcast
4:56 PM 57.9 °F - 55.9 °F 93% 30.07 in 7.0 mi South 6.9 mph - N/A   Overcast
5:56 PM 59.0 °F - 55.9 °F 90% 30.07 in 7.0 mi SSE 6.9 mph - N/A   Overcast
6:56 PM 57.9 °F - 55.9 °F 93% 30.07 in 10.0 mi SSE 11.5 mph - N/A   Overcast
7:56 PM 57.9 °F - 54.9 °F 90% 30.07 in 10.0 mi South 10.4 mph - N/A   Overcast
8:56 PM 57.9 °F - 54.0 °F 87% 30.06 in 10.0 mi South 10.4 mph - N/A   Overcast
9:56 PM 57.9 °F - 54.0 °F 87% 30.06 in 10.0 mi South 11.5 mph - N/A   Overcast
10:56 PM 55.9 °F - 52.9 °F 89% 30.06 in 10.0 mi South 10.4 mph - N/A   Partly Cloudy
11:56 PM 54.9 °F - 52.0 °F 90% 30.06 in 10.0 mi South 8.1 mph - N/A   Clear